Mount Werner, CO

3:58 AM MDT on October 19, 2017 (GMT -0600)
Mount Werner

Weather History for K3MW - December, 2012

Change the Weather History Date:

Thursday, December 6, 2012

  Actual Average (KSBS) Record (KSBS)
Temperature  
Mean Temperature 29 °F -  
Max Temperature 30 °F 32 °F 59 °F (1939)
Min Temperature 28 °F 6 °F -28 °F (1912)
Degree Days  
Heating Degree Days 36    
Moisture  
Dew Point 27 °F    
Average Humidity 90    
Maximum Humidity 93    
Minimum Humidity 86    
Precipitation  
Precipitation 0.00 in - - ()
Sea Level Pressure  
Sea Level Pressure 29.88 in    
Wind  
Wind Speed 11 mph (West)    
Max Wind Speed 24 mph    
Max Gust Speed 30 mph    
Visibility 1 miles    
Events Fog , Snow    
Averages and records for this station are not official NWS values.
T = Trace of Precipitation, MM = Missing Value Source: NWS Daily Summary

Daily Weather History Graph

Daily Weather History Graph

Search for Another Location

Airport or City:

Trip Planner

Search our weather history database for the weather conditions in past years. The results will help you decide how hot, cold, wet, or windy it might be!

Date:

Astronomy

Dec. 06, 2012 Rise Set
Actual Time 7:16 AM MST 4:40 PM MST
Civil Twilight 6:45 AM MST 5:10 PM MST
Nautical Twilight 6:11 AM MST 5:44 PM MST
Astronomical Twilight 5:38 AM MST 6:17 PM MST
Moon No Moon Rise 12:09 PM MST (12/6)
Length of Visible Light 10h 25m
Length of Day
9h 23m
Waning Gibbous, 48% of the Moon is Illuminated
Dec 6
Waning Gibbous
Dec 13
New
Dec 19
First Quarter
Dec 28
Full
Jan 4
Last Quarter

Hourly Weather History & Observations

Time (MST) Temp. Windchill Dew Point Humidity Pressure Visibility Wind Dir Wind Speed Gust Speed Precip Events Conditions
12:16 AM 30.2 °F 20.2 °F 26.6 °F 86% 29.98 in 10.0 mi West 12.7 mph - N/A   Overcast
12:36 AM 30.2 °F 21.9 °F 26.6 °F 86% 29.97 in 10.0 mi WSW 9.2 mph - N/A   Overcast
12:56 AM 30.2 °F 20.8 °F 26.6 °F 86% 29.97 in 4.0 mi West 11.5 mph 16.1 mph N/A Snow Light Snow
1:16 AM 30.2 °F 21.3 °F 26.6 °F 86% 29.97 in 0.2 mi West 10.4 mph - N/A Snow Heavy Snow
1:36 AM 30.2 °F 21.3 °F 26.6 °F 86% 29.96 in 0.2 mi WSW 10.4 mph - N/A Snow Heavy Snow
1:56 AM 30.2 °F 20.2 °F 26.6 °F 86% 29.96 in 0.2 mi West 12.7 mph - N/A Snow Heavy Snow
2:16 AM 28.4 °F 17.5 °F 26.6 °F 93% 29.96 in 0.2 mi West 13.8 mph 18.4 mph N/A Snow Heavy Snow
2:36 AM 28.4 °F 17.5 °F 26.6 °F 93% 29.96 in 0.2 mi West 13.8 mph 17.3 mph N/A Snow Heavy Snow
2:56 AM 28.4 °F 18.5 °F 26.6 °F 93% 29.95 in 0.2 mi West 11.5 mph - N/A Snow Heavy Snow
3:16 AM 28.4 °F 17.5 °F 26.6 °F 93% 29.94 in 0.2 mi West 13.8 mph - N/A Snow Heavy Snow
3:36 AM 28.4 °F 18.0 °F 26.6 °F 93% 29.94 in 0.2 mi West 12.7 mph - N/A Snow Heavy Snow
3:56 AM 28.4 °F 18.5 °F 26.6 °F 93% 29.93 in 0.2 mi West 11.5 mph - N/A Snow Heavy Snow
4:16 AM 28.4 °F 18.5 °F 26.6 °F 93% 29.92 in 0.2 mi West 11.5 mph - N/A Snow Heavy Snow
4:36 AM - - - N/A% 29.92 in 0.2 mi West 12.7 mph 16.1 mph N/A   Unknown
4:56 AM - - - N/A% 29.92 in 0.2 mi West 11.5 mph 16.1 mph N/A   Unknown
5:16 AM - - - N/A% 29.92 in 0.2 mi West 13.8 mph 17.3 mph N/A   Unknown
5:36 AM - - - N/A% 29.92 in 0.2 mi West 9.2 mph - N/A   Unknown
5:56 AM - - - N/A% 29.92 in 0.2 mi WNW 6.9 mph - N/A   Unknown
6:16 AM - - - N/A% 29.92 in 0.2 mi West 6.9 mph - N/A   Unknown
6:36 AM - - - N/A% 29.92 in 0.5 mi West 8.1 mph - N/A   Unknown
6:56 AM - - - N/A% 29.92 in 0.2 mi West 6.9 mph - N/A   Unknown
7:16 AM - - - N/A% 29.92 in 0.2 mi West 3.5 mph - N/A   Unknown
7:36 AM - - - N/A% 29.92 in 0.2 mi WSW 6.9 mph - N/A   Unknown
7:56 AM - - - N/A% 29.92 in 0.2 mi WSW 8.1 mph - N/A   Unknown
8:16 AM - - - N/A% 29.92 in 0.2 mi West 9.2 mph - N/A   Unknown
8:36 AM - - - N/A% 29.92 in 0.2 mi West 8.1 mph - N/A   Unknown
8:56 AM - - - N/A% 29.92 in 0.2 mi West 11.5 mph 16.1 mph N/A   Unknown
9:16 AM - - - N/A% 29.92 in 0.2 mi West 9.2 mph - N/A   Unknown
9:36 AM - - - N/A% 29.92 in 0.2 mi West 11.5 mph - N/A   Unknown
9:56 AM - - - N/A% 29.94 in 0.2 mi West 8.1 mph - N/A   Unknown
10:16 AM - - - N/A% 29.93 in 0.2 mi West 11.5 mph 16.1 mph N/A Fog Fog
10:36 AM - - - N/A% 29.92 in 0.2 mi WNW 10.4 mph 17.3 mph N/A Fog Fog
10:56 AM - - - N/A% 29.92 in 0.2 mi WNW 10.4 mph 17.3 mph N/A Fog Fog
11:16 AM - - - N/A% 29.91 in 0.2 mi West 8.1 mph - N/A Fog Fog
11:36 AM - - - N/A% 29.90 in 0.2 mi WNW 11.5 mph - N/A Fog Fog
11:56 AM - - - N/A% 29.90 in 0.2 mi WNW 9.2 mph - N/A Fog Fog
12:16 PM - - - N/A% 29.89 in 0.2 mi West 10.4 mph - N/A Fog Fog
12:36 PM - - - N/A% 29.88 in 0.2 mi West 9.2 mph - N/A Fog Fog
12:56 PM - - - N/A% 29.88 in 0.2 mi WNW 9.2 mph 16.1 mph N/A Fog Fog
1:16 PM - - - N/A% 29.87 in 0.2 mi WNW 8.1 mph - N/A Fog Fog
1:36 PM - - - N/A% 29.87 in 0.2 mi West 10.4 mph - N/A Fog Fog
1:56 PM - - - N/A% 29.86 in 0.2 mi West 11.5 mph 17.3 mph N/A Fog Fog
2:16 PM - - - N/A% 29.86 in 0.2 mi WSW 11.5 mph 17.3 mph N/A Fog Fog
2:36 PM - - - N/A% 29.85 in 5.0 mi West 12.7 mph - N/A   Haze
2:56 PM - - - N/A% 29.85 in 0.2 mi West 9.2 mph - N/A Fog Fog
3:16 PM - - - N/A% 29.85 in 0.2 mi West 10.4 mph - N/A Fog Fog
3:36 PM - - - N/A% 29.85 in 0.2 mi West 9.2 mph - N/A Fog Fog
3:56 PM - - - N/A% 29.85 in 0.2 mi West 8.1 mph - N/A Fog Fog
4:16 PM - - - N/A% 29.84 in 0.2 mi West 10.4 mph - N/A Fog Fog
4:36 PM - - - N/A% 29.83 in 0.2 mi West 9.2 mph - N/A Fog Fog
4:56 PM - - - N/A% 29.83 in 0.2 mi West 8.1 mph - N/A Fog Fog
5:16 PM - - - N/A% 29.83 in 0.2 mi West 9.2 mph - N/A   Unknown
5:36 PM - - - N/A% 29.83 in 0.2 mi West 9.2 mph - N/A   Unknown
6:16 PM - - - N/A% 29.82 in 0.2 mi West 11.5 mph 17.3 mph N/A Fog Fog
6:36 PM - - - N/A% 29.82 in 0.2 mi West 10.4 mph 18.4 mph N/A   Unknown
6:56 PM - - - N/A% 29.81 in 0.2 mi West 16.1 mph 23.0 mph N/A   Unknown
7:36 PM - - - N/A% 29.81 in 0.2 mi West 10.4 mph 16.1 mph N/A   Unknown
7:56 PM - - - N/A% 29.81 in 0.2 mi West 10.4 mph - N/A   Unknown
8:16 PM - - - N/A% 29.81 in 0.2 mi West 10.4 mph - N/A   Unknown
8:36 PM - - - N/A% 29.81 in 0.2 mi WSW 11.5 mph 21.9 mph N/A   Unknown
8:56 PM - - - N/A% 29.81 in 0.2 mi West 15.0 mph 20.7 mph N/A   Unknown
9:16 PM - - - N/A% 29.81 in 0.2 mi WSW 17.3 mph 23.0 mph N/A   Unknown
9:36 PM - - - N/A% 29.80 in 0.2 mi WSW 24.2 mph 29.9 mph N/A   Unknown
9:56 PM - - - N/A% 29.81 in 0.2 mi WSW 18.4 mph 26.5 mph N/A   Unknown
10:16 PM - - - N/A% 29.80 in 0.2 mi WSW 18.4 mph 27.6 mph N/A   Unknown
10:36 PM - - - N/A% 29.80 in 0.2 mi WSW 18.4 mph 26.5 mph N/A   Unknown
10:56 PM - - - N/A% 29.79 in 0.2 mi SW 20.7 mph 27.6 mph N/A   Unknown
11:16 PM - - - N/A% 29.79 in 0.2 mi WSW 18.4 mph 28.8 mph N/A   Unknown
11:36 PM - - - N/A% 29.79 in 0.2 mi WSW 18.4 mph 24.2 mph N/A   Unknown
11:56 PM - - - N/A% 29.79 in 0.2 mi WSW 15.0 mph 23.0 mph N/A   Unknown